This is the latest recevied weather packets stored in our database for station/object KD5BIG-13. If no packets are shown the sender has not sent any weather packets the latest 10 day(s).
| Time | Temp. | Humidity | Pressure | Rain* | Wind** | Luminosity | Snow |
|---|---|---|---|---|---|---|---|
| 1777396885 | 29.44° C | 68% | 1020.4 hPa | 0 mm | - | 810 W/m² | - |
| 1777396581 | 30° C | 71% | 1020.4 hPa | 0 mm | - | 709 W/m² | - |
| 1777396279 | 30° C | 69% | 1020.2 hPa | 0 mm | - | 800 W/m² | - |
| 1777395975 | 29.44° C | 73% | 1020.4 hPa | 0 mm | - | 844 W/m² | - |
| 1777395669 | 28.89° C | 71% | 1020.4 hPa | 0 mm | - | 805 W/m² | - |
| 1777395366 | 28.89° C | 71% | 1020.5 hPa | 0 mm | - | 942 W/m² | - |
| 1777395064 | 28.89° C | 70% | 1020.4 hPa | 0 mm | - | 866 W/m² | - |
| 1777394760 | 28.33° C | 71% | 1020.4 hPa | 0 mm | - | 759 W/m² | - |
| 1777394456 | 28.33° C | 73% | 1020.2 hPa | 0 mm | - | 597 W/m² | - |
| 1777394153 | 28.33° C | 77% | 1020.3 hPa | 0 mm | - | 642 W/m² | - |
| 1777393849 | 27.78° C | 77% | 1020.7 hPa | 0 mm | - | 756 W/m² | - |
| 1777393548 | 27.22° C | 75% | 1020.4 hPa | 0 mm | - | 674 W/m² | - |
| 1777393243 | 27.22° C | 78% | 1020.4 hPa | 0 mm | - | 475 W/m² | - |
| 1777392941 | 27.22° C | 77% | 1020.6 hPa | 0 mm | - | 314 W/m² | - |
| 1777392636 | 26.67° C | 77% | 1020.5 hPa | 0 mm | - | 366 W/m² | - |
| 1777392332 | 27.22° C | 76% | 1020.6 hPa | 0 mm | - | 396 W/m² | - |
| 1777392032 | 27.22° C | 77% | 1020.8 hPa | 0 mm | - | 448 W/m² | - |
| 1777391727 | 26.67° C | 80% | 1020.7 hPa | 0 mm | - | 456 W/m² | - |
| 1777391424 | 26.67° C | 79% | 1020.7 hPa | 0 mm | - | 349 W/m² | - |
| 1777391121 | 26.67° C | 79% | 1020.8 hPa | 0 mm | - | 361 W/m² | - |
| 1777390817 | 26.67° C | 78% | 1020.8 hPa | 0 mm | - | 311 W/m² | - |
| 1777390514 | 26.67° C | 77% | 1020.9 hPa | 0 mm | - | 344 W/m² | - |
| 1777390210 | 26.67° C | 77% | 1020.8 hPa | 0 mm | - | 476 W/m² | - |
| 1777389906 | 26.67° C | 78% | 1020.5 hPa | 0 mm | - | 492 W/m² | - |
| 1777389603 | 26.67° C | 80% | 1020.6 hPa | 0 mm | - | 456 W/m² | - |
* Rain latest hour (hover to see other rain measurements)
** Current wind speed in m/s (hover to see current wind gust speed)